COSMOS 2491 DEB, 47111

Orbit data source: Space-Track

COSMOS 2491 DEB, 47111 is space debris in LEO originally from a launch on Wed, 25 Dec 2013 UTC launched from the Plesetsk Missile And Space Complex (PKMTR). Debris objects in space refer to the collection of defunct objects orbiting the Earth. Examples of debris include non-operational satellites, rocket bodies, and fragments generated from explosions, collisions, or faulty payload assembly.

Loading next visibility...
Identifier
47111, 2013-076AG
Orbit
LEO
Country
Flag of CISCIS
Related business
Manufacturer
TsNIIKhM
Mission
Spacecraft
Bus & Motor
Unknown
Mass
Unknown
Launch date (UTC)
2013-12-25 (13 years ago)
Launch vehicle
Unknown
Launch site
Plesetsk Missile And Space Complex (PKMTR)
Object type
Payload
Rocket body
Debris
Shape & HBR
Unknown shape, 0.1 m
Radar Cross Section
Small (<0.1 m²)

Expand to show TLE details & history
Last TLE update: 1 month ago

TLE from 1 month ago
0 COSMOS 2491 DEB
1 47111U 13076AG  26227.36406538  .00000458  00000-0  25485-2 0  9998
2 47111  82.4525 102.2812 0105103   1.6004 358.5401 12.59486085146701
Epoch: 2026-08-15T08:44Z
TLE epoch observation values (Epoch: 2026-08-15T08:44:15.248Z)
Latitude
-0.00006°
Longitude
7.44165°
Altitude
1,345.788 km
Speed
7.223 km/s
True Right ascension
06h 49m 07s
True Declination
0° 00' 00"
Sunlit
Object was in daylight at epoch
Visualization orbit readout
Latitude
Unknown
Longitude
Unknown
Altitude
Unknown
Speed
Unknown
Apparent Right ascension
Unknown
Apparent Declination
Unknown
Sunlit
N/A
Visualization observer readout
Local Sidereal Time
23:21:20
Azimuth
Unknown
Elevation
Unknown
Doppler factor
Unknown
Orbital elements
Apogee altitude
1,504.381 km
Perigee altitude
1,340.41 km
Semi-major axis
7,800.532 km
Eccentricity
0.01051
Inclination
82.4525°
RAAN
102.2812°
Arg. of periapsis
1.6004°
True anomaly
358.50901°
Mean anomaly
358.5401°
Eccentric anomaly
358.52459°
Mean motion
3.15034 °/min
Orbital period
114.27 mins
BSTAR
0.0025485
Loading maneuver chart data...
Computing Atmospheric mass density...
Loading historical data...
Loading historical data...
Loading historical data...
Loading historical data...
Loading historical data...
Loading historical data...
Loading historical data...

Documentation

Showing up to 5 results
|